When you browse on this site, cookies collect data to enhance your experience and personalize the content and advertising you see.
Visit our Privacy Policy to learn more. By continuing to use the site, you agree to this use of cookies and data.
  • In Hungary
  • List of Countries
  • For 7 days
  • Water Temperature
  • Satellite Maps
  • Weather Map
  • News
  • Weather Widgets
  • user-avatar
    Login

    Hourly Weather Cullera

    Today, 15 December, Saturday

    Time Temperature Precipitation Wind Pressure Humidity
    00:00 +8°C° 0 mm 6 mps 763 mmHg 69%
    01:00 +8°C° 0 mm 7 mps 763 mmHg 68%
    02:00 +8°C° 0 mm 7 mps 763 mmHg 67%
    03:00 +8°C° 0 mm 7 mps 763 mmHg 65%
    04:00 +8°C° 0 mm 7 mps 763 mmHg 66%
    05:00 +8°C° 0 mm 7 mps 763 mmHg 66%
    06:00 +9°C° 0 mm 7 mps 763 mmHg 66%
    07:00 +9°C° 0 mm 7 mps 763 mmHg 65%
    08:00 +10°C° 0 mm 7 mps 763 mmHg 64%
    09:00 +11°C° 0 mm 6 mps 763 mmHg 63%
    10:00 +13°C° 0 mm 6 mps 763 mmHg 60%
    11:00 +15°C° 0 mm 5 mps 763 mmHg 57%
    12:00 +17°C° 0 mm 5 mps 763 mmHg 55%
    13:00 +17°C° 0 mm 5 mps 763 mmHg 56%
    14:00 +19°C° 0 mm 5 mps 762 mmHg 57%
    15:00 +19°C° 0 mm 6 mps 762 mmHg 58%
    16:00 +17°C° 0 mm 6 mps 762 mmHg 62%
    17:00 +16°C° 0 mm 6 mps 762 mmHg 67%
    18:00 +15°C° 0 mm 7 mps 762 mmHg 71%
    19:00 +15°C° 0 mm 7 mps 762 mmHg 73%
    20:00 +15°C° 0 mm 8 mps 762 mmHg 74%
    21:00 +13°C° 0 mm 8 mps 763 mmHg 76%
    22:00 +13°C° 0 mm 8 mps 762 mmHg 77%
    23:00 +13°C° 0 mm 8 mps 762 mmHg 77%

    Tomorrow, 16 December, Sunday

    Time Temperature Precipitation Wind Pressure Humidity
    00:00 +13°C° 0 mm 8 mps 762 mmHg 78%
    01:00 +13°C° 0 mm 8 mps 762 mmHg 78%
    02:00 +12°C° 0 mm 8 mps 762 mmHg 78%
    03:00 +12°C° 0 mm 8 mps 762 mmHg 78%
    04:00 +12°C° 0 mm 8 mps 761 mmHg 78%
    05:00 +12°C° 0 mm 8 mps 761 mmHg 78%
    06:00 +12°C° 0 mm 8 mps 761 mmHg 78%
    07:00 +14°C° 0 mm 7 mps 761 mmHg 74%
    08:00 +14°C° 0 mm 7 mps 761 mmHg 70%
    09:00 +15°C° 0 mm 7 mps 761 mmHg 66%
    10:00 +16°C° 0 mm 7 mps 761 mmHg 58%
    11:00 +18°C° 0 mm 8 mps 760 mmHg 50%
    12:00 +21°C° 0 mm 8 mps 760 mmHg 43%
    13:00 +20°C° 0 mm 8 mps 760 mmHg 49%
    14:00 +20°C° 0 mm 8 mps 760 mmHg 55%
    15:00 +18°C° 0 mm 8 mps 760 mmHg 62%
    16:00 +17°C° 0 mm 8 mps 760 mmHg 65%
    17:00 +16°C° 0 mm 8 mps 761 mmHg 69%
    18:00 +15°C° 0 mm 8 mps 761 mmHg 73%
    19:00 +15°C° 0 mm 8 mps 762 mmHg 75%
    20:00 +13°C° 0 mm 8 mps 762 mmHg 77%
    21:00 +12°C° 0 mm 9 mps 763 mmHg 78%
    22:00 +12°C° 0 mm 9 mps 763 mmHg 80%
    23:00 +11°C° 0 mm 9 mps 763 mmHg 81%

    Day after tomorrow, 17 December, Monday

    Time Temperature Precipitation Wind Pressure Humidity
    00:00 +11°C° 0 mm 9 mps 764 mmHg 82%
    01:00 +11°C° 0 mm 9 mps 764 mmHg 82%
    02:00 +10°C° 0 mm 8 mps 764 mmHg 81%
    03:00 +10°C° 0 mm 8 mps 764 mmHg 80%
    04:00 +9°C° 0 mm 8 mps 765 mmHg 81%
    05:00 +9°C° 0 mm 7 mps 765 mmHg 81%
    06:00 +8°C° 0 mm 7 mps 765 mmHg 81%
    07:00 +9°C° 0 mm 7 mps 766 mmHg 77%
    08:00 +9°C° 0 mm 6 mps 766 mmHg 72%
    09:00 +10°C° 0 mm 6 mps 767 mmHg 68%
    10:00 +12°C° 0 mm 5 mps 767 mmHg 58%
    11:00 +14°C° 0 mm 4 mps 767 mmHg 48%
    12:00 +15°C° 0 mm 4 mps 767 mmHg 39%
    13:00 +16°C° 0 mm 3 mps 766 mmHg 37%
    14:00 +17°C° 0 mm 2 mps 766 mmHg 35%
    15:00 +18°C° 0 mm 1 mps 766 mmHg 32%
    16:00 +15°C° 0 mm 2 mps 766 mmHg 38%
    17:00 +14°C° 0 mm 2 mps 766 mmHg 43%
    18:00 +11°C° 0 mm 3 mps 767 mmHg 48%
    19:00 +11°C° 0 mm 3 mps 767 mmHg 50%
    20:00 +10°C° 0 mm 3 mps 767 mmHg 52%
    21:00 +10°C° 0 mm 3 mps 767 mmHg 54%
    22:00 +10°C° 0 mm 3 mps 767 mmHg 57%
    23:00 +9°C° 0 mm 3 mps 767 mmHg 60%

    18 December, Tuesday

    Time Temperature Precipitation Wind Pressure Humidity
    00:00 +9°C° 0 mm 3 mps 767 mmHg 64%
    01:00 +9°C° 0 mm 3 mps 767 mmHg 66%
    02:00 +9°C° 0 mm 3 mps 766 mmHg 68%
    03:00 +8°C° 0 mm 3 mps 766 mmHg 70%
    04:00 +8°C° 0 mm 2 mps 766 mmHg 71%
    05:00 +8°C° 0 mm 2 mps 766 mmHg 71%
    06:00 +8°C° 0 mm 2 mps 766 mmHg 72%
    07:00 +9°C° 0 mm 3 mps 766 mmHg 70%
    08:00 +10°C° 0 mm 3 mps 766 mmHg 69%
    09:00 +11°C° 0 mm 3 mps 766 mmHg 67%
    10:00 +13°C° 0 mm 3 mps 765 mmHg 66%
    11:00 +14°C° 0 mm 3 mps 765 mmHg 65%
    12:00 +16°C° 0 mm 3 mps 764 mmHg 64%
    13:00 +17°C° 0 mm 3 mps 763 mmHg 62%
    14:00 +17°C° 0 mm 4 mps 763 mmHg 60%
    15:00 +17°C° 0 mm 4 mps 762 mmHg 58%
    16:00 +15°C° 0 mm 4 mps 762 mmHg 66%
    17:00 +14°C° 0 mm 4 mps 762 mmHg 73%
    18:00 +12°C° 0 mm 4 mps 762 mmHg 81%
    19:00 +12°C° 0 mm 3 mps 762 mmHg 81%
    20:00 +12°C° 0 mm 3 mps 762 mmHg 81%
    21:00 +13°C° 0 mm 3 mps 763 mmHg 82%
    22:00 +13°C° 0 mm 3 mps 762 mmHg 81%
    23:00 +13°C° 0 mm 3 mps 762 mmHg 80%

    19 December, Wednesday

    Time Temperature Precipitation Wind Pressure Humidity
    00:00 +13°C° 0 mm 3 mps 762 mmHg 80%
    01:00 +13°C° 0 mm 3 mps 761 mmHg 79%
    02:00 +13°C° 0 mm 3 mps 761 mmHg 78%
    03:00 +14°C° 0 mm 4 mps 761 mmHg 77%
    04:00 +14°C° 0.2 mm 4 mps 761 mmHg 78%
    05:00 +14°C° 0.2 mm 4 mps 761 mmHg 78%
    06:00 +14°C° 0.2 mm 5 mps 761 mmHg 79%
    07:00 +14°C° 0 mm 5 mps 761 mmHg 77%
    08:00 +14°C° 0 mm 6 mps 762 mmHg 76%
    09:00 +14°C° 0 mm 6 mps 762 mmHg 74%
    10:00 +15°C° 0 mm 6 mps 762 mmHg 62%
    11:00 +16°C° 0 mm 6 mps 762 mmHg 49%
    12:00 +17°C° 0 mm 7 mps 762 mmHg 37%
    13:00 +16°C° 0 mm 6 mps 762 mmHg 36%
    14:00 +16°C° 0 mm 5 mps 762 mmHg 36%
    15:00 +17°C° 0 mm 4 mps 762 mmHg 36%
    16:00 +15°C° 0 mm 4 mps 763 mmHg 42%
    17:00 +14°C° 0 mm 4 mps 763 mmHg 48%
    18:00 +12°C° 0 mm 4 mps 764 mmHg 54%
    19:00 +12°C° 0 mm 4 mps 764 mmHg 58%
    20:00 +11°C° 0 mm 4 mps 765 mmHg 61%
    21:00 +10°C° 0 mm 4 mps 765 mmHg 65%
    22:00 +10°C° 0 mm 4 mps 765 mmHg 67%
    23:00 +9°C° 0 mm 5 mps 765 mmHg 69%

    20 December, Thursday

    Time Temperature Precipitation Wind Pressure Humidity
    00:00 +8°C° 0 mm 5 mps 765 mmHg 71%
    01:00 +8°C° 0 mm 5 mps 765 mmHg 70%
    02:00 +8°C° 0 mm 5 mps 765 mmHg 70%
    03:00 +8°C° 0 mm 4 mps 765 mmHg 70%
    04:00 +8°C° 0 mm 4 mps 766 mmHg 71%
    05:00 +8°C° 0 mm 4 mps 766 mmHg 72%
    06:00 +8°C° 0 mm 3 mps 766 mmHg 73%
    07:00 +9°C° 0 mm 3 mps 766 mmHg 70%
    08:00 +10°C° 0 mm 3 mps 767 mmHg 67%
    09:00 +11°C° 0 mm 3 mps 767 mmHg 63%
    10:00 +13°C° 0 mm 3 mps 767 mmHg 57%
    11:00 +14°C° 0 mm 3 mps 767 mmHg 51%
    12:00 +17°C° 0 mm 3 mps 766 mmHg 45%
    13:00 +17°C° 0 mm 2 mps 766 mmHg 44%
    14:00 +18°C° 0 mm 2 mps 766 mmHg 43%
    15:00 +19°C° 0 mm 1 mps 766 mmHg 42%
    16:00 +16°C° 0 mm 2 mps 766 mmHg 48%
    17:00 +15°C° 0 mm 2 mps 767 mmHg 53%
    18:00 +13°C° 0 mm 2 mps 767 mmHg 59%
    19:00 +13°C° 0 mm 2 mps 767 mmHg 62%
    20:00 +12°C° 0 mm 2 mps 768 mmHg 64%
    21:00 +12°C° 0 mm 2 mps 768 mmHg 66%
    22:00 +10°C° 0 mm 2 mps 768 mmHg 68%
    23:00 +10°C° 0 mm 2 mps 768 mmHg 69%
    Show more